| DS18B20 | SHTC3 | PZEM-004T | WiFi | ||||||||
|---|---|---|---|---|---|---|---|---|---|---|---|
| ID | Date d/m/Y & Time | data1 สูง | data2 ต่ำ | data3 นอก | temp pcb | hum pcb | Volt | Amp | Watt | rssi | Time |
| 13777 | 18/08/2026 15:33:03 | 33.8  | 32.7  | 33.1  | 34.4  | 62.9  | 234.6  | 0.04  | 4.5  | -76  | 15:33 |
| 13776 | 18/08/2026 15:28:20 | 33.8  | 32.7  | 33.0  | 34.6  | 63.0  | 234.1  | 0.04  | 4.5  | -76  | 15:28 |
| 13775 | 18/08/2026 15:23:37 | 33.8  | 32.7  | 32.9  | 34.6  | 62.9  | 233.7  | 0.04  | 4.6  | -76  | 15:23 |
| 13774 | 18/08/2026 15:18:54 | 33.9  | 32.7  | 32.7  | 34.8  | 62.8  | 234.5  | 0.04  | 4.6  | -76  | 15:18 |
| 13773 | 18/08/2026 15:14:11 | 33.9  | 32.7  | 32.7  | 34.7  | 62.8  | 234.3  | 0.04  | 4.6  | -77  | 15:14 |
| 13772 | 18/08/2026 15:09:27 | 34.0  | 32.7  | 32.7  | 34.8  | 62.7  | 234.4  | 0.04  | 4.6  | -77  | 15:09 |
| 13771 | 18/08/2026 15:04:44 | 34.1  | 32.7  | 32.9  | 34.8  | 62.5  | 234.4  | 0.04  | 4.6  | -77  | 15:04 |
| 13770 | 18/08/2026 15:00:01 | 34.1  | 32.7  | 33.2  | 35.0  | 62.4  | 234.4  | 0.04  | 4.6  | -77  | 15:00 |
| 13769 | 18/08/2026 14:55:17 | 34.1  | 32.6  | 33.5  | 35.0  | 62.2  | 234.4  | 0.04  | 4.6  | -76  | 14:55 |
| 13768 | 18/08/2026 14:50:33 | 34.1  | 32.6  | 34.2  | 34.8  | 62.0  | 234.3  | 0.04  | 4.6  | -76  | 14:50 |
| 13767 | 18/08/2026 14:45:50 | 34.1  | 32.6  | 34.8  | 34.7  | 61.9  | 235.0  | 0.04  | 4.6  | -73  | 14:45 |
| 13766 | 18/08/2026 14:41:06 | 34.2  | 32.6  | 34.7  | 34.9  | 61.8  | 234.3  | 0.04  | 4.5  | -74  | 14:41 |
| 13765 | 18/08/2026 14:36:22 | 34.2  | 32.6  | 34.9  | 34.8  | 61.7  | 234.6  | 0.04  | 4.5  | -75  | 14:36 |
| 13764 | 18/08/2026 14:31:39 | 34.1  | 32.5  | 34.7  | 34.8  | 61.8  | 234.6  | 0.04  | 4.6  | -76  | 14:31 |
| 13763 | 18/08/2026 14:26:55 | 34.1  | 32.4  | 35.2  | 34.8  | 61.7  | 234.6  | 0.04  | 4.6  | -76  | 14:26 |
| 13762 | 18/08/2026 14:22:12 | 34.1  | 32.4  | 34.9  | 34.8  | 61.7  | 234.7  | 0.04  | 4.6  | -76  | 14:22 |
| 13761 | 18/08/2026 14:17:29 | 34.1  | 32.4  | 35.2  | 35.0  | 61.7  | 234.6  | 0.04  | 4.6  | -76  | 14:17 |
| 13760 | 18/08/2026 14:12:45 | 34.0  | 32.3  | 35.4  | 34.7  | 61.7  | 235.0  | 0.04  | 4.6  | -76  | 14:12 |
| 13759 | 18/08/2026 14:08:02 | 34.0  | 32.3  | 35.0  | 34.7  | 61.5  | 234.2  | 0.04  | 4.6  | -75  | 14:08 |
| 13758 | 18/08/2026 14:03:19 | 33.9  | 32.2  | 34.9  | 34.6  | 61.7  | 234.1  | 0.04  | 4.6  | -74  | 14:03 |
| 13757 | 18/08/2026 13:58:35 | 33.9  | 32.2  | 34.7  | 34.7  | 61.9  | 234.1  | 0.04  | 4.6  | -74  | 13:58 |
| 13756 | 18/08/2026 13:53:52 | 33.9  | 32.2  | 34.7  | 34.6  | 61.9  | 234.0  | 0.04  | 4.6  | -75  | 13:53 |
| 13755 | 18/08/2026 13:49:09 | 33.9  | 32.1  | 34.4  | 34.6  | 61.8  | 233.2  | 0.04  | 4.5  | -75  | 13:49 |
| 13754 | 18/08/2026 13:44:25 | 33.9  | 32.1  | 34.5  | 34.6  | 61.7  | 234.2  | 0.04  | 4.5  | -76  | 13:44 |